Change the Weather History Date:

Friday, March 22, 2013

  Actual Average Record
Temperature  
Mean Temperature 58 °F -  
Max Temperature 68 °F 70 °F 82 °F (1975)
Min Temperature 51 °F 49 °F 30 °F (1986)
Degree Days  
Heating Degree Days 8    
Growing Degree Days 8 (Base 50)    
Moisture  
Dew Point 53 °F    
Average Humidity 74    
Maximum Humidity 84    
Minimum Humidity 58    
Precipitation  
Precipitation 0.07 in - - ()
Sea Level Pressure  
Sea Level Pressure 29.86 in    
Wind  
Wind Speed 9 mph (ESE)    
Max Wind Speed 21 mph    
Max Gust Speed 29 mph    
Visibility 10 miles    
Events Rain    
Averages and records for this station are not official NWS values.
T = Trace of Precipitation, MM = Missing Value Source: NWS Daily Summary

Daily Weather History Graph

Daily Weather History Graph

Search for Another Location

Airport or City:

Trip Planner

Search our weather history database for the weather conditions in past years. The results will help you decide how hot, cold, wet, or windy it might be!

Date:

Astronomy

Mar. 22, 2013 Rise Set
Actual Time 6:57 AM CDT 7:09 PM CDT
Civil Twilight 6:33 AM CDT 7:33 PM CDT
Nautical Twilight 6:05 AM CDT 8:01 PM CDT
Astronomical Twilight 5:37 AM CDT 8:29 PM CDT
Moon 2:52 PM CDT (3/22) 3:40 AM CDT (3/22)
Length of Visible Light 12h 59m
Length of Day
12h 11m
Waxing Gibbous, 77% of the Moon is Illuminated
Mar 22
Waxing Gibbous
Mar 27
Full
Apr 2
Last Quarter
Apr 10
New
Apr 18
First Quarter

Hourly Weather History & Observations

Time (CDT) Temp. Dew Point Humidity Pressure Visibility Wind Dir Wind Speed Gust Speed Precip Events Conditions
12:53 AM 53.1 °F 43.0 °F 69% 29.90 in 10.0 mi Calm Calm - N/A   Overcast
1:53 AM 51.1 °F 44.1 °F 77% 29.91 in 10.0 mi Calm Calm - N/A   Clear
2:53 AM 52.0 °F 43.0 °F 71% 29.90 in 10.0 mi East 3.5 mph - N/A   Mostly Cloudy
3:53 AM 54.0 °F 45.0 °F 72% 29.87 in 10.0 mi ENE 4.6 mph - N/A   Overcast
4:53 AM 55.0 °F 45.0 °F 69% 29.85 in 10.0 mi East 6.9 mph - N/A   Overcast
5:53 AM 57.0 °F 46.0 °F 67% 29.85 in 10.0 mi East 5.8 mph - N/A   Overcast
6:53 AM 61.0 °F 46.0 °F 58% 29.87 in 10.0 mi East 9.2 mph 18.4 mph N/A   Overcast
7:53 AM 59.0 °F 46.9 °F 64% 29.89 in 10.0 mi NE 9.2 mph - N/A   Overcast
8:53 AM 63.0 °F 50.0 °F 63% 29.87 in 10.0 mi SE 19.6 mph 27.6 mph 0.00 in   Mostly Cloudy
9:53 AM 64.0 °F 52.0 °F 65% 29.89 in 10.0 mi SE 12.7 mph - N/A   Overcast
10:53 AM 64.0 °F 53.1 °F 67% 29.90 in 10.0 mi ESE 13.8 mph - N/A   Overcast
11:53 AM 64.9 °F 53.1 °F 65% 29.90 in 10.0 mi ESE 17.3 mph - N/A   Overcast
12:53 PM 64.0 °F 57.0 °F 78% 29.89 in 10.0 mi ESE 19.6 mph - 0.02 in   Mostly Cloudy
1:53 PM 64.9 °F 55.9 °F 73% 29.86 in 10.0 mi ESE 17.3 mph 25.3 mph N/A   Mostly Cloudy
2:03 PM 62.6 °F 57.2 °F 82% 29.86 in 2.5 mi SE 12.7 mph - 0.04 in Rain Rain
2:10 PM 62.6 °F 57.2 °F 82% 29.86 in 5.0 mi SE 13.8 mph - 0.05 in Rain Light Rain
2:53 PM 63.0 °F 57.9 °F 84% 29.85 in 10.0 mi East 13.8 mph - 0.05 in   Mostly Cloudy
3:53 PM 64.0 °F 57.9 °F 80% 29.83 in 10.0 mi ESE 11.5 mph - 0.00 in   Overcast
4:53 PM 64.9 °F 57.9 °F 78% 29.82 in 10.0 mi East 10.4 mph - N/A   Overcast
5:53 PM 64.9 °F 57.0 °F 75% 29.82 in 10.0 mi East 15.0 mph - N/A   Overcast
6:53 PM 64.9 °F 57.9 °F 78% 29.84 in 10.0 mi East 8.1 mph - 0.00 in Rain Light Rain
7:53 PM 64.9 °F 57.9 °F 78% 29.83 in 10.0 mi East 17.3 mph - 0.00 in   Overcast
8:53 PM 64.0 °F 57.9 °F 80% 29.83 in 10.0 mi ESE 18.4 mph 25.3 mph N/A   Overcast
9:53 PM 64.0 °F 59.0 °F 84% 29.85 in 10.0 mi ESE 20.7 mph 28.8 mph N/A   Overcast
10:53 PM 64.0 °F 59.0 °F 84% 29.86 in 10.0 mi ESE 15.0 mph - N/A   Overcast
11:08 PM 64.4 °F 59.0 °F 83% 29.86 in 10.0 mi ESE 17.3 mph - N/A   Overcast
11:53 PM 64.0 °F 59.0 °F 84% 29.87 in 10.0 mi East 12.7 mph - N/A   Overcast